Home > Weather > Bastia > Past weeks

Flag for France Weather for the Past 2 Weeks in Bastia, Corsica, France

Now
72 °F

Passing clouds.


Feels Like: 77 °F
Forecast: 53 / 65 °F
Wind: 5 mph from Northeast

Location: Bastia Airport

Current Time: May 4, 2016 at 6:14:29 PM

Latest Report: May 4, 2016 at 5:00 PM


Visibility: N/A

Pressure: 30.04 "Hg

Humidity: 41%

Dew Point: 46 °F

Location of BastiaLocation

Historic Weather in Bastia — Graph

°F

Bastia Temperature Yesterday

Maximum temperature yesterday: 75 °F (at 3:00 PM)
Minimum temperature yesterday: 54 °F (at 10:30 PM)
Average temperature yesterday: 65 °F

High & Low Weather Summary for the Past Weeks

 TemperatureHumidityPressure
High75 °F (May 3, 3:00 PM)100% (Apr 22, 6:00 AM)30.21 "Hg (Apr 22, 6:00 AM)
Low43 °F (Apr 26, 3:30 AM)22% (Apr 25, 6:00 PM)29.50 "Hg (Apr 24, 5:30 AM)
Average59 °F70%29.91 "Hg
* Reported Apr 19 4:00 PM — May 4 4:30 PM, Bastia, Weather by CustomWeather, © 2016

Note: Actual official high and low records may vary slightly from our data, if they occured in-between our weather recording intervals... More about our weather records

Advertising

Bastia Weather History for the Previous 24 Hours

Scroll right to see more
 ConditionsComfort  
Time TempWeatherWind HumidityBarometerVisibility
4:30 PM
Wed, May 4
72 °FPassing clouds.6 mph41%30.04 "HgN/A
4:00 PM73 °FPassing clouds.8 mph44%30.04 "HgN/A
3:30 PM73 °FPassing clouds.7 mph38%30.04 "HgN/A
3:00 PM73 °FPassing clouds.7 mph38%30.04 "HgN/A
2:30 PM73 °FPassing clouds.7 mph44%30.04 "HgN/A
1:00 PM72 °FPassing clouds.3 mph41%30.07 "HgN/A
12:30 PM72 °FPassing clouds.6 mph44%30.07 "HgN/A
12:00 PM70 °FPassing clouds.8 mph46%30.07 "HgN/A
11:37 AM70 °FPassing clouds.8 mph50%30.07 "HgN/A
11:00 AM68 °FPassing clouds.5 mph46%30.07 "HgN/A
10:00 AM68 °FPassing clouds.5 mph53%30.04 "HgN/A
9:30 AM66 °FSunny.8 mph56%30.04 "Hg10 mi
9:00 AM64 °FSunny.7 mph60%30.04 "Hg10 mi
8:30 AM64 °FSunny.2 mph64%30.04 "Hg10 mi
8:00 AM63 °FPassing clouds.3 mph59%30.04 "HgN/A
7:30 AM55 °FPassing clouds.5 mph82%30.01 "HgN/A
7:00 AM52 °FClear.2 mph88%30.01 "Hg10 mi
6:30 AM50 °FClear.6 mph88%29.98 "Hg10 mi
6:00 AM52 °FPassing clouds.6 mph88%29.98 "HgN/A
5:30 AM52 °FClear.5 mph88%29.98 "Hg10 mi
5:00 AM50 °FClear.2 mph88%29.98 "Hg10 mi
4:30 AM54 °FPassing clouds.5 mph82%29.98 "HgN/A
4:00 AM54 °FPassing clouds.7 mph82%29.98 "HgN/A
3:30 AM54 °FPassing clouds.2 mph82%29.95 "HgN/A
3:00 AM55 °FPassing clouds.5 mph77%29.95 "HgN/A
2:30 AM54 °FClear.3 mph88%29.95 "Hg10 mi
2:00 AM54 °FClear.5 mph94%29.95 "Hg10 mi
1:30 AM57 °FPassing clouds.5 mph88%29.95 "HgN/A
1:00 AM57 °FPassing clouds.3 mph94%29.95 "HgN/A
12:30 AM59 °FClear.9 mph88%29.95 "Hg10 mi
12:00 AM55 °FPassing clouds.7 mph82%29.95 "HgN/A
11:30 PM
Tue, May 3
54 °FPassing clouds.1 mph82%29.92 "HgN/A
11:00 PM54 °FPassing clouds.2 mph82%29.92 "HgN/A
10:30 PM54 °FPassing clouds.3 mph82%29.92 "HgN/A
10:00 PM55 °FPassing clouds.3 mph77%29.92 "HgN/A
9:30 PM57 °FPassing clouds.No wind77%29.92 "HgN/A
9:00 PM59 °FScattered clouds.1 mph72%29.92 "HgN/A
8:30 PM63 °FScattered clouds.2 mph59%29.92 "HgN/A
8:00 PM66 °FPartly sunny.2 mph56%29.89 "HgN/A
7:30 PM70 °FPartly sunny.3 mph50%29.89 "HgN/A
7:00 PM70 °FPartly sunny.5 mph50%29.89 "HgN/A
6:30 PM72 °FPartly sunny.5 mph44%29.89 "HgN/A
6:00 PM73 °FPartly sunny.6 mph41%29.92 "HgN/A
Weather by CustomWeather, © 2016

See weather overviewHow to use our weather pages